Location: Archemont
(49.1579°N, 1.7598°E)
Time: 09:32:27
(UTC+00:00)

Altair - Pass Details

Date: 21 April 2024
Orbit: 1501 x 1682 km, 47.2° (Epoch: 17 May)

Event Time Altitude Azimuth Distance (km) Brightness Sun altitude
Rises 19:02:51 0° 236° (WSW) 4,919 10.7 -2.0°
Reaches altitude 10° 19:06:04 10° 234° (SW) 3,922 10.1 -2.5°
Maximum altitude 19:15:55 63° 156° (SSE) 1,797 7.7 -4.0°
Drops below altitude 10° 19:25:27 10° 79° (E) 3,808 9.1 -5.4°
Sets 19:28:32 0° 76° (ENE) 4,770 9.6 -5.9°
